K3RTA-2 Weather Reports


Display with metric or nautical units.
time (UTC)temp
F
wind
direction
speed
MPH
gust
MPH
rain 1hr
in
rain 24hr
in
rain mn
in
humidity
%
barometer
mb
20260903082004 74 346 0.0 1.0 0.15 0.20 0.19 98 1017.9
20260903081504 74 346 0.0 1.0 0.15 0.20 0.19 98 1017.7
20260903081005 74 348 0.0 3.0 0.15 0.20 0.19 98 1017.6
20260903080504 74 348 0.0 7.0 0.15 0.20 0.19 98 1017.5
20260903080004 74 34 1.0 7.0 0.14 0.19 0.18 98 1017.3
20260903074504 74 17 1.0 3.0 0.00 0.05 0.04 98 1017.8
20260903074005 74 31 1.0 3.0 0.00 0.05 0.04 98 1017.5
20260903073504 74 17 0.0 3.0 0.00 0.05 0.04 98 1017.2
20260903073003 73 33 0.0 1.0 0.00 0.05 0.04 98 1017.0
20260903072503 73 33 0.0 0.0 0.00 0.05 0.04 98 1016.7
20260903072004 73 33 0.0 0.0 0.00 0.05 0.04 98 1016.6
20260903071504 73 33 0.0 0.0 0.00 0.05 0.04 98 1016.6
20260903071004 73 33 0.0 0.0 0.00 0.05 0.04 98 1016.6
20260903070504 73 33 0.0 0.0 0.00 0.05 0.04 98 1016.6
20260903070004 73 33 0.0 0.0 0.00 0.05 0.04 98 1016.5
20260903065504 73 33 0.0 0.0 0.00 0.05 0.04 98 1016.4
20260903065004 73 33 0.0 0.0 0.01 0.05 0.04 98 1016.4
20260903064005 73 33 0.0 1.0 0.03 0.05 0.04 98 1016.4
20260903063504 73 54 0.0 1.0 0.03 0.05 0.04 98 1016.3
20260903063004 73 68 0.0 0.0 0.03 0.05 0.04 98 1016.1
20260903062504 73 68 0.0 0.0 0.03 0.05 0.04 98 1016.1
20260903061503 73 68 0.0 0.0 0.03 0.05 0.04 98 1016.2
20260903061004 73 68 0.0 0.0 0.03 0.05 0.04 98 1016.4
20260903055004 73 131 0.0 2.0 0.02 0.04 0.03 98 1016.4
20260903054504 73 147 0.0 0.0 0.00 0.02 0.01 98 1016.9
20260903054003 73 148 0.0 0.0 0.00 0.02 0.01 98 1017.1
20260903053004 73 148 0.0 0.0 0.00 0.02 0.01 98 1017.6
20260903052504 73 148 0.0 0.0 0.00 0.02 0.01 98 1017.6
20260903052004 73 148 0.0 0.0 0.00 0.02 0.01 98 1017.6
20260903051504 73 148 0.0 0.0 0.00 0.02 0.01 98 1017.6
20260903051004 73 148 0.0 0.0 0.00 0.04 0.01 98 1017.6
20260903050005 73 148 0.0 0.0 0.00 0.21 0.01 98 1017.3
20260903045504 73 148 0.0 0.0 0.00 0.50 0.01 98 1017.5
20260903044504 73 149 0.0 0.0 0.00 0.80 0.01 97 1017.5
20260903044004 73 149 0.0 1.0 0.00 0.91 0.01 98 1017.5
20260903043004 73 58 0.0 1.0 0.00 0.91 0.01 98 1017.4
20260903042504 73 57 0.0 1.0 0.00 0.91 0.01 97 1017.5
20260903042005 73 25 0.0 1.0 0.00 0.91 0.01 98 1017.6
20260903041504 73 30 0.0 1.0 0.00 0.91 0.01 97 1017.8
20260903041004 73 30 0.0 1.0 0.00 0.91 0.01 97 1017.8
20260903040504 73 30 0.0 0.0 0.00 0.91 0.01 97 1017.7
20260903035004 74 30 0.0 0.0 0.00 0.91 0.01 97 1017.8
20260903034504 74 30 0.0 0.0 0.00 0.91 0.01 97 1017.7
20260903034004 74 30 0.0 0.0 0.00 0.91 0.01 97 1017.5
20260903033504 74 30 0.0 0.0 0.00 0.91 0.01 97 1017.5
20260903033005 74 30 0.0 0.0 0.00 0.91 0.01 97 1017.6
20260903032504 74 30 0.0 0.0 0.00 0.91 0.01 97 1017.4
20260903032004 74 30 0.0 1.0 0.00 0.91 0.01 97 1017.5
20260903031503 74 30 0.0 1.0 0.00 0.91 0.01 97 1017.8
20260903031004 74 98 0.0 1.0 0.00 0.92 0.01 97 1017.9
20260903030504 74 112 0.0 0.0 0.00 0.95 0.01 97 1017.8
20260903030004 74 112 0.0 0.0 0.00 1.18 0.01 97 1017.7
20260903025505 74 112 0.0 0.0 0.00 1.35 0.01 97 1017.6
20260903025004 74 112 0.0 0.0 0.00 1.50 0.01 97 1017.7
20260903024504 74 112 0.0 0.0 0.00 1.55 0.01 97 1017.7
20260903024004 74 112 0.0 0.0 0.00 1.55 0.01 97 1017.9
20260903023504 74 112 0.0 0.0 0.00 1.55 0.01 97 1017.9
20260903023003 74 112 0.0 0.0 0.00 1.55 0.01 97 1017.9
20260903022504 74 112 0.0 0.0 0.00 1.55 0.01 97 1017.7
20260903022004 74 112 0.0 0.0 0.00 1.55 0.01 97 1017.8
20260903021504 74 112 0.0 2.0 0.00 1.55 0.01 97 1017.7
20260903021004 74 115 1.0 2.0 0.00 1.55 0.01 97 1017.4
20260903020503 74 118 0.0 0.0 0.00 1.55 0.01 97 1017.5
20260903020004 74 120 0.0 0.0 0.00 1.55 0.01 97 1017.5
20260903015504 74 118 0.0 2.0 0.00 1.55 0.01 97 1017.7
20260903015004 74 118 0.0 2.0 0.00 1.55 0.01 97 1017.6
20260903014504 74 95 0.0 1.0 0.00 1.55 0.01 97 1017.5
20260903013504 74 108 0.0 2.0 0.00 1.55 0.01 97 1017.7
20260903013004 75 135 0.0 2.0 0.00 1.55 0.01 97 1017.7
20260903012503 75 103 0.0 2.0 0.00 1.55 0.01 96 1017.8
20260903012004 75 112 0.0 2.0 0.00 1.55 0.01 96 1017.8
20260903011505 75 76 0.0 1.0 0.00 1.55 0.01 96 1017.8
20260903011005 75 63 0.0 1.0 0.00 1.55 0.01 96 1017.9
20260903010504 75 63 0.0 1.0 0.00 1.55 0.01 96 1017.9
20260903010004 75 63 0.0 1.0 0.00 1.55 0.01 96 1017.9
20260903005504 75 59 0.0 1.0 0.00 1.55 0.01 96 1017.8
20260903004504 75 106 0.0 1.0 0.00 1.55 0.01 96 1017.7
20260903003004 75 133 0.0 2.0 0.00 1.55 0.01 96 1017.5
20260903001504 75 99 0.0 1.0 0.00 1.55 0.01 96 1017.5
20260903001004 75 98 0.0 1.0 0.00 1.55 0.01 96 1017.4
20260903000504 75 100 0.0 1.0 0.00 1.55 0.01 96 1017.6
20260903000004 75 44 0.0 1.0 0.00 1.55 0.01 96 1017.6
20260902235005 75 66 0.0 2.0 0.00 1.55 0.01 96 1017.5
20260902234004 75 53 0.0 3.0 0.00 1.55 0.01 96 1017.3
20260902233504 76 60 0.0 2.0 0.00 1.55 0.01 96 1017.5
20260902233004 76 60 0.0 2.0 0.00 1.55 0.01 96 1017.6
20260902232504 76 81 0.0 2.0 0.00 1.55 0.01 96 1017.5
20260902232004 76 80 0.0 1.0 0.00 1.55 0.01 96 1017.6
20260902231504 76 82 0.0 1.0 0.00 1.55 0.01 96 1017.5
20260902230504 76 81 0.0 1.0 0.00 1.55 0.01 96 1017.4
20260902230003 76 81 0.0 1.0 0.00 1.55 0.01 96 1017.5
20260902225504 76 81 0.0 1.0 0.00 1.55 0.01 95 1017.5
20260902225005 76 81 0.0 1.0 0.00 1.55 0.01 95 1017.6
20260902224004 76 126 1.0 2.0 0.00 1.55 0.01 95 1017.5
20260902223503 76 57 0.0 1.0 0.00 1.55 0.01 95 1017.4
20260902223005 76 57 0.0 1.0 0.00 1.55 0.01 95 1017.5
20260902222504 76 57 0.0 1.0 0.00 1.55 0.01 95 1017.6
20260902222005 76 57 0.0 1.0 0.00 1.55 0.01 95 1017.8
20260902221504 76 57 0.0 2.0 0.00 1.55 0.01 95 1017.9
20260902220504 76 31 1.0 5.0 0.00 1.55 0.01 95 1018.1
20260902220004 76 27 1.0 3.0 0.00 1.55 0.01 95 1018.3
20260902215504 76 47 0.0 3.0 0.00 1.55 0.01 95 1018.2
20260902215003 76 17 0.0 3.0 0.00 1.55 0.01 95 1018.2
20260902214505 76 70 0.0 3.0 0.00 1.55 0.01 95 1018.0
20260902214004 76 16 0.0 3.0 0.00 1.55 0.01 95 1017.9
20260902213504 76 72 1.0 2.0 0.00 1.55 0.01 95 1017.7
20260902213004 76 62 1.0 2.0 0.00 1.55 0.01 95 1017.9
20260902212505 76 27 0.0 0.0 0.00 1.55 0.01 95 1018.0
20260902211504 76 27 0.0 1.0 0.00 1.55 0.01 95 1018.1
20260902211005 76 27 0.0 1.0 0.00 1.55 0.01 96 1017.9
20260902205503 76 100 0.0 1.0 0.01 1.55 0.01 96 1017.3
20260902205004 75 257 0.0 2.0 0.01 1.55 0.01 96 1017.6
20260902204504 75 255 1.0 3.0 0.01 1.55 0.01 96 1017.3
20260902204003 75 169 2.0 3.0 0.01 1.55 0.01 95 1016.8
20260902203504 75 172 1.0 3.0 0.01 1.55 0.01 95 1016.7
20260902203004 75 76 1.0 7.0 0.01 1.55 0.01 95 1016.8
20260902202504 75 127 2.0 7.0 0.01 1.55 0.01 95 1016.3
20260902202004 75 132 2.0 7.0 0.01 1.55 0.01 95 1016.0
20260902201504 75 123 1.0 12.0 0.01 1.55 0.01 95 1016.0
20260902201003 75 160 3.0 12.0 0.01 1.55 0.01 95 1015.9
20260902200504 75 137 4.0 12.0 0.01 1.55 0.01 95 1016.1
20260902200004 75 126 6.0 12.0 0.00 1.54 0.00 94 1016.2
20260902195504 76 125 3.0 7.0 0.00 1.54 0.00 94 1016.6
20260902195004 76 125 1.0 7.0 0.00 1.54 0.00 94 1017.5
20260902194503 76 112 2.0 7.0 0.00 1.54 0.00 93 1017.8
20260902194005 77 132 3.0 7.0 0.00 1.54 0.00 92 1017.9
20260902193504 77 138 1.0 5.0 0.00 1.54 0.00 92 1018.5
20260902193004 77 127 2.0 5.0 0.00 1.54 0.00 91 1018.9
20260902192503 77 70 0.0 2.0 0.00 1.54 0.00 91 1019.7
20260902192004 78 24 0.0 2.0 0.00 1.54 0.00 90 1019.9
20260902191504 78 24 0.0 2.0 0.00 1.54 0.00 90 1019.9
20260902191004 78 141 0.0 2.0 0.00 1.54 0.00 89 1019.9
20260902190504 79 115 0.0 5.0 0.00 1.54 0.00 89 1019.5
20260902190004 79 102 0.0 5.0 0.00 1.54 0.00 89 1019.0
20260902185504 79 127 0.0 5.0 0.00 1.54 0.00 89 1019.2
20260902185004 79 9 0.0 8.0 0.00 1.54 0.00 89 1019.4
20260902184503 80 60 2.0 8.0 0.00 1.54 0.00 88 1019.3
20260902184004 80 128 2.0 8.0 0.00 1.54 0.00 88 1019.0
20260902183504 80 66 1.0 6.0 0.00 1.54 0.00 88 1018.9
20260902182504 80 109 1.0 3.0 0.00 1.54 0.00 88 1019.1
20260902182004 80 73 1.0 3.0 0.00 1.54 0.00 88 1019.2
20260902181504 80 58 2.0 3.0 0.00 1.54 0.00 89 1019.3
20260902181004 80 80 0.0 5.0 0.00 1.54 0.00 90 1019.3
20260902180504 79 68 2.0 5.0 0.00 1.54 0.00 89 1019.3
20260902180006 79 51 1.0 8.0 0.00 1.54 0.00 90 1019.4
20260902174504 79 106 1.0 7.0 0.00 1.54 0.00 90 1019.4
20260902174004 79 64 1.0 7.0 0.00 1.54 0.00 90 1019.3
20260902172004 80 75 1.0 7.0 0.00 1.54 0.00 88 1019.1
20260902171004 80 84 1.0 8.0 0.00 1.54 0.00 88 1019.1
20260902170503 81 105 2.0 5.0 0.00 1.54 0.00 87 1019.0
20260902170004 81 146 2.0 5.0 0.00 1.54 0.00 87 1019.0
20260902165504 81 41 2.0 6.0 0.00 1.54 0.00 88 1018.9
20260902164004 81 64 3.0 7.0 0.00 1.54 0.00 88 1018.8
20260902163504 81 47 2.0 7.0 0.00 1.54 0.00 89 1018.9
20260902163004 81 61 1.0 7.0 0.00 1.54 0.00 90 1018.9
20260902162504 80 71 2.0 7.0 0.00 1.54 0.00 90 1019.0
20260902162004 80 89 0.0 3.0 0.00 1.54 0.00 90 1018.9
20260902161504 80 63 1.0 5.0 0.00 1.54 0.00 90 1018.8
20260902161004 80 65 2.0 8.0 0.00 1.54 0.00 90 1018.8
20260902160504 80 63 2.0 8.0 0.00 1.54 0.00 90 1018.9
20260902155504 80 91 2.0 7.0 0.00 1.54 1.54 89 1019.0
20260902155005 81 64 2.0 9.0 0.00 1.54 1.54 90 1018.8
20260902154504 80 100 2.0 9.0 0.00 1.54 1.54 89 1018.7
20260902154004 81 143 3.0 8.0 0.00 1.54 1.54 89 1018.7
20260902153503 81 131 3.0 8.0 0.00 1.54 1.54 90 1018.9
20260902153004 81 81 2.0 7.0 0.00 1.54 1.54 90 1018.9
20260902152504 80 67 1.0 7.0 0.00 1.54 1.54 92 1018.9
20260902152004 79 100 2.0 7.0 0.00 1.54 1.54 92 1019.0
20260902151504 79 43 2.0 7.0 0.00 1.54 1.54 93 1018.9
20260902151004 79 66 2.0 7.0 0.00 1.54 1.54 94 1019.0
20260902150504 78 39 2.0 8.0 0.00 1.54 1.54 94 1019.0
20260902150004 78 55 2.0 8.0 0.00 1.54 1.54 94 1019.0
20260902145504 78 67 1.0 7.0 0.00 1.54 1.54 94 1019.1
20260902145004 78 60 1.0 9.0 0.00 1.54 1.54 95 1019.1
20260902144504 78 62 2.0 9.0 0.00 1.54 1.54 95 1019.1
20260902144004 78 56 2.0 9.0 0.00 1.54 1.54 95 1019.1
20260902143504 78 62 1.0 7.0 0.00 1.54 1.54 96 1019.2
20260902143004 77 48 2.0 7.0 0.00 1.54 1.54 95 1019.1
20260902142504 77 32 2.0 6.0 0.00 1.54 1.54 96 1019.1
20260902142005 77 57 0.0 6.0 0.00 1.54 1.54 97 1019.3
20260902141504 76 40 2.0 6.0 0.00 1.54 1.54 97 1019.3
20260902141004 76 29 2.0 8.0 0.00 1.54 1.54 97 1019.2
20260902140504 76 57 2.0 8.0 0.00 1.54 1.54 97 1019.1
20260902140005 76 28 2.0 8.0 0.00 1.54 1.54 98 1019.0
20260902135504 76 44 1.0 3.0 0.00 1.54 1.54 98 1019.0
20260902135003 76 87 1.0 3.0 0.00 1.54 1.54 98 1019.0
20260902134503 75 54 1.0 3.0 0.00 1.54 1.54 98 1018.9
20260902134004 76 34 1.0 3.0 0.00 1.54 1.54 98 1018.9
20260902133505 76 79 0.0 3.0 0.00 1.54 1.54 98 1018.7
20260902133004 75 36 0.0 3.0 0.00 1.54 1.54 98 1018.5
20260902132504 75 48 1.0 3.0 0.00 1.54 1.54 98 1018.5
20260902132004 75 72 1.0 3.0 0.00 1.54 1.54 98 1018.5
20260902131004 75 71 1.0 3.0 0.00 1.54 1.54 98 1018.3
20260902130503 75 65 1.0 3.0 0.00 1.54 1.54 98 1018.4
20260902130004 74 56 2.0 3.0 0.00 1.54 1.54 98 1018.4
20260902124503 74 14 1.0 3.0 0.00 1.54 1.54 98 1018.3
20260902124004 74 68 1.0 3.0 0.00 1.54 1.54 98 1018.2
20260902123504 74 44 1.0 3.0 0.00 1.54 1.54 98 1018.4
20260902123004 74 42 0.0 6.0 0.00 1.54 1.54 99 1018.4
20260902122504 74 43 2.0 6.0 0.00 1.54 1.54 98 1018.4
20260902122004 74 42 1.0 3.0 0.00 1.54 1.54 99 1018.4
20260902121504 73 23 0.0 2.0 0.00 1.54 1.54 99 1018.4
20260902120004 73 53 0.0 1.0 0.00 1.54 1.54 99 1018.5
20260902115506 73 57 0.0 1.0 0.00 1.54 1.54 98 1018.4
20260902115004 73 45 0.0 1.0 0.00 1.54 1.54 98 1018.3
20260902114503 72 53 0.0 1.0 0.00 1.54 1.54 98 1018.3
20260902113504 72 46 0.0 1.0 0.00 1.54 1.54 98 1018.3
20260902113004 72 30 0.0 1.0 0.00 1.54 1.54 98 1018.3
20260902112504 72 30 0.0 1.0 0.00 1.54 1.54 98 1018.4
20260902112005 71 30 0.0 1.0 0.00 1.54 1.54 98 1018.3
20260902111004 71 30 0.0 1.0 0.00 1.54 1.54 98 1018.1
20260902110504 71 30 0.0 1.0 0.00 1.54 1.54 98 1018.1
20260902110006 71 20 0.0 1.0 0.00 1.54 1.54 98 1018.1
20260902105504 71 18 0.0 1.0 0.00 1.54 1.54 98 1018.0
20260902105004 71 16 0.0 0.0 0.00 1.54 1.54 98 1018.0
20260902104503 71 16 0.0 0.0 0.00 1.54 1.54 98 1017.9
20260902104004 71 16 0.0 0.0 0.00 1.54 1.54 98 1017.8
20260902103505 71 16 0.0 0.0 0.00 1.54 1.54 98 1017.8
20260902103004 71 16 0.0 0.0 0.00 1.54 1.54 98 1017.8
20260902102503 71 16 0.0 0.0 0.00 1.54 1.54 98 1017.7
20260902102004 71 16 0.0 0.0 0.00 1.54 1.54 98 1017.6
20260902101504 71 16 0.0 0.0 0.00 1.54 1.54 98 1017.5
20260902101004 71 16 0.0 0.0 0.00 1.54 1.54 98 1017.5
20260902100504 71 16 0.0 0.0 0.00 1.54 1.54 98 1017.4
20260902100004 71 16 0.0 0.0 0.00 1.54 1.54 98 1017.3
20260902095504 71 16 0.0 0.0 0.00 1.54 1.54 98 1017.3
20260902095004 71 16 0.0 1.0 0.00 1.54 1.54 98 1017.3
20260902094504 71 16 0.0 1.0 0.00 1.54 1.54 98 1017.2
20260902094004 72 15 0.0 2.0 0.00 1.54 1.54 98 1017.2
20260902093004 72 20 0.0 3.0 0.00 1.54 1.54 98 1017.3
20260902092004 72 17 1.0 3.0 0.01 1.54 1.54 98 1017.2
20260902091504 72 24 1.0 3.0 0.01 1.54 1.54 98 1017.1
20260902090504 72 43 0.0 3.0 0.01 1.54 1.54 98 1016.9
20260902090004 72 34 0.0 1.0 0.01 1.54 1.54 98 1016.9
20260902085503 72 37 0.0 1.0 0.01 1.54 1.54 98 1016.9
20260902085004 72 37 0.0 2.0 0.01 1.54 1.54 98 1016.8
20260902084504 72 37 0.0 3.0 0.01 1.54 1.54 98 1016.8
20260902084004 72 19 0.0 3.0 0.01 1.54 1.54 98 1016.8